Location: Casteau
(50.5142°N, 4.0161°E)
Time: 00:36:21
(UTC+00:00)

S-56A Canister/Altair - Pass Details

Date: 03 August 2021
Orbit: 632 x 2500 km, 38.9° (Epoch: 16 September)

Event Time Altitude Azimuth Distance (km) Brightness Sun altitude
Rises 11:58:18 0° 191° (SSW) 5,037 12.2 56.8°
Reaches altitude 10° 12:02:28 10° 177° (S) 4,345 12.1 56.8°
Maximum altitude 12:10:45 21° 134° (SE) 3,940 11.7 56.6°
Drops below altitude 10° 12:20:19 10° 93° (E) 5,119 11.8 56.3°
Sets 12:25:47 0° 80° (E) 6,184 12.0 56.1°
